Weather History for KBFW - April, 2013

Change the Weather History Date:

Friday, April 5, 2013

  Actual Average Record
Temperature  
Mean Temperature 22 °F -  
Max Temperature 35 °F 39 °F - (-1)
Min Temperature 10 °F 21 °F - (-1)
Degree Days  
Heating Degree Days 42    
Moisture  
Dew Point 9 °F    
Average Humidity 51    
Maximum Humidity 79    
Minimum Humidity 28    
Precipitation  
Precipitation 0.00 in - - ()
Sea Level Pressure  
Sea Level Pressure 30.16 in    
Wind  
Wind Speed 1 mph (ESE)    
Max Wind Speed 8 mph    
Max Gust Speed -    
Visibility 10 miles    
Events      
Averages and records for this station are not official NWS values.
T = Trace of Precipitation, MM = Missing Value Source: NWS Daily Summary

Daily Weather History Graph

Daily Weather History Graph

Search for Another Location

Airport or City:

Trip Planner

Search our weather history database for the weather conditions in past years. The results will help you decide how hot, cold, wet, or windy it might be!

Date:

Astronomy

Apr. 05, 2013 Rise Set
Actual Time 6:36 AM CDT 7:41 PM CDT
Civil Twilight 6:04 AM CDT 8:12 PM CDT
Nautical Twilight 5:27 AM CDT 8:50 PM CDT
Astronomical Twilight 4:47 AM CDT 9:30 PM CDT
Moon 4:02 AM CDT (4/5) 2:48 PM CDT (4/5)
Length of Visible Light 14h 07m
Length of Day
13h 05m
Waning Crescent, 23% of the Moon is Illuminated
Apr 5
Waning Crescent
Apr 10
New
Apr 18
First Quarter
Apr 25
Full
May 2
Last Quarter

Hourly Weather History & Observations

Time (CDT) Temp. Windchill Dew Point Humidity Pressure Visibility Wind Dir Wind Speed Gust Speed Precip Events Conditions
12:13 AM 23.0 °F - 8.6 °F 54% 30.13 in 10.0 mi Calm Calm - N/A   Clear
12:33 AM 23.0 °F - 8.6 °F 54% 30.14 in 10.0 mi Calm Calm - N/A   Clear
12:53 AM 21.2 °F - 8.6 °F 58% 30.14 in 10.0 mi Calm Calm - N/A   Clear
1:13 AM 21.2 °F - 8.6 °F 58% 30.16 in 10.0 mi Calm Calm - N/A   Clear
1:33 AM 21.2 °F - 8.6 °F 58% 30.16 in 10.0 mi Calm Calm - N/A   Clear
1:53 AM 21.2 °F - 8.6 °F 58% 30.16 in 10.0 mi Calm Calm - N/A   Clear
2:13 AM 21.2 °F - 6.8 °F 54% 30.17 in 10.0 mi Calm Calm - N/A   Clear
2:33 AM 21.2 °F - 6.8 °F 54% 30.17 in 10.0 mi Calm Calm - N/A   Clear
2:53 AM 21.2 °F - 6.8 °F 54% 30.17 in 10.0 mi Calm Calm - N/A   Clear
3:13 AM 21.2 °F - 6.8 °F 54% 30.18 in 10.0 mi Calm Calm - N/A   Clear
3:33 AM 21.2 °F - 6.8 °F 54% 30.18 in 10.0 mi Calm Calm - N/A   Clear
3:53 AM 19.4 °F - 6.8 °F 58% 30.19 in 10.0 mi Calm Calm - N/A   Clear
4:13 AM 15.8 °F - 5.0 °F 62% 30.19 in 10.0 mi Calm Calm - N/A   Clear
4:33 AM 15.8 °F - 6.8 °F 68% 30.20 in 10.0 mi Calm Calm - N/A   Clear
4:53 AM 14.0 °F - 6.8 °F 73% 30.21 in 10.0 mi Calm Calm - N/A   Clear
5:13 AM 14.0 °F - 6.8 °F 73% 30.21 in 10.0 mi Calm Calm - N/A   Clear
5:33 AM 12.2 °F - 5.0 °F 73% 30.22 in 10.0 mi Calm Calm - N/A   Clear
5:53 AM 12.2 °F - 5.0 °F 73% 30.22 in 10.0 mi Calm Calm - N/A   Clear
6:13 AM 10.4 °F - 5.0 °F 79% 30.22 in 10.0 mi Calm Calm - N/A   Clear
6:33 AM 10.4 °F - 3.2 °F 73% 30.23 in 10.0 mi Calm Calm - N/A   Clear
6:53 AM 10.4 °F - 3.2 °F 73% 30.24 in 10.0 mi Calm Calm - N/A   Clear
7:13 AM 12.2 °F - 6.8 °F 79% 30.24 in 10.0 mi Calm Calm - N/A   Clear
7:33 AM 15.8 °F - 8.6 °F 73% 30.24 in 10.0 mi Calm Calm - N/A   Clear
7:54 AM 17.6 °F - 8.6 °F 68% 30.24 in 10.0 mi Calm Calm - N/A   Clear
8:13 AM 23.0 °F - 8.6 °F 54% 30.24 in 10.0 mi Calm Calm - N/A   Clear
8:33 AM 24.8 °F - 6.8 °F 46% 30.24 in 10.0 mi Calm Calm - N/A   Clear
8:53 AM 28.4 °F - 6.8 °F 40% 30.24 in 10.0 mi Calm Calm - N/A   Clear
9:13 AM 32.0 °F - 6.8 °F 35% 30.24 in 10.0 mi Calm Calm - N/A   Clear
9:33 AM 33.8 °F - 3.2 °F 28% 30.24 in 10.0 mi Calm Calm - N/A   Clear
9:53 AM 33.8 °F - 6.8 °F 32% 30.24 in 10.0 mi Calm Calm - N/A   Clear
10:13 AM 32.0 °F - 5.0 °F 32% 30.23 in 10.0 mi Calm Calm - N/A   Clear
10:33 AM 32.0 °F - 5.0 °F 32% 30.23 in 10.0 mi Calm Calm - N/A   Clear
10:53 AM 33.8 °F 30.8 °F 5.0 °F 30% 30.23 in 10.0 mi East 3.5 mph - N/A   Clear
11:13 AM 33.8 °F 27.7 °F 6.8 °F 32% 30.23 in 10.0 mi SSE 6.9 mph - N/A   Clear
11:33 AM 33.8 °F 30.8 °F 6.8 °F 32% 30.23 in 10.0 mi SSE 3.5 mph - N/A   Clear
11:53 AM 32.0 °F 27.5 °F 8.6 °F 38% 30.22 in 10.0 mi South 4.6 mph - N/A   Clear
12:13 PM 32.0 °F 26.4 °F 6.8 °F 35% 30.22 in 10.0 mi SE 5.8 mph - N/A   Clear
12:33 PM 32.0 °F 25.6 °F 8.6 °F 38% 30.22 in 10.0 mi SSE 6.9 mph - N/A   Clear
12:53 PM 33.8 °F - 3.2 °F 28% 30.21 in 10.0 mi Calm Calm - N/A   Clear
1:13 PM 35.6 °F - 6.8 °F 30% 30.19 in 10.0 mi Calm Calm - N/A   Clear
1:33 PM 33.8 °F - 6.8 °F 32% 30.18 in 10.0 mi Calm Calm - N/A   Clear
1:53 PM 35.6 °F 30.7 °F 8.6 °F 33% 30.18 in 10.0 mi SSE 5.8 mph - N/A   Clear
2:13 PM 35.6 °F 32.8 °F 6.8 °F 30% 30.17 in 10.0 mi SE 3.5 mph - N/A   Clear
2:34 PM 35.6 °F 31.7 °F 8.6 °F 33% 30.17 in 10.0 mi ESE 4.6 mph - N/A   Clear
2:53 PM 33.8 °F - 8.6 °F 35% 30.17 in 10.0 mi Calm Calm - N/A   Clear
3:13 PM 33.8 °F 28.6 °F 8.6 °F 35% 30.16 in 10.0 mi ESE 5.8 mph - N/A   Clear
3:33 PM 33.8 °F 29.6 °F 8.6 °F 35% 30.15 in 10.0 mi SE 4.6 mph - N/A   Clear
3:53 PM 33.8 °F 29.6 °F 10.4 °F 38% 30.14 in 10.0 mi ESE 4.6 mph - N/A   Clear
4:13 PM 32.0 °F - 10.4 °F 41% 30.14 in 10.0 mi Calm Calm - N/A   Clear
4:33 PM 32.0 °F - 10.4 °F 41% 30.14 in 10.0 mi Calm Calm - N/A   Clear
4:53 PM 32.0 °F - 12.2 °F 44% 30.13 in 10.0 mi Calm Calm - N/A   Clear
5:13 PM 30.2 °F - 12.2 °F 47% 30.12 in 10.0 mi Calm Calm - N/A   Clear
5:33 PM 30.2 °F - 12.2 °F 47% 30.12 in 10.0 mi Calm Calm - N/A   Clear
5:53 PM 30.2 °F - 10.4 °F 44% 30.11 in 10.0 mi Calm Calm - N/A   Clear
6:13 PM 28.4 °F - 10.4 °F 47% 30.10 in 10.0 mi Calm Calm - N/A   Clear
6:33 PM 28.4 °F - 10.4 °F 47% 30.09 in 10.0 mi Calm Calm - N/A   Clear
6:53 PM 28.4 °F 23.3 °F 10.4 °F 47% 30.09 in 10.0 mi ENE 4.6 mph - N/A   Clear
7:13 PM 28.4 °F - 10.4 °F 47% 30.08 in 10.0 mi Calm Calm - N/A   Clear
7:33 PM 28.4 °F - 8.6 °F 43% 30.07 in 10.0 mi Calm Calm - N/A   Mostly Cloudy
7:53 PM 26.6 °F 20.0 °F 10.4 °F 51% 30.07 in 10.0 mi East 5.8 mph - N/A   Overcast
8:13 PM 26.6 °F - 15.8 °F 64% 30.08 in 10.0 mi Calm Calm - N/A   Overcast
8:33 PM 26.6 °F 18.2 °F 15.8 °F 64% 30.07 in 10.0 mi East 8.1 mph - N/A   Overcast
8:53 PM 26.6 °F 19.1 °F 17.6 °F 69% 30.08 in 10.0 mi East 6.9 mph - N/A   Overcast
9:13 PM 26.6 °F 19.1 °F 15.8 °F 64% 30.08 in 10.0 mi ENE 6.9 mph - N/A   Overcast
9:33 PM 26.6 °F - 15.8 °F 64% 30.08 in 10.0 mi Calm Calm - N/A   Overcast
9:54 PM 26.6 °F 20.0 °F 15.8 °F 64% 30.07 in 10.0 mi ENE 5.8 mph - N/A   Overcast
10:13 PM 26.6 °F - 17.6 °F 69% 30.07 in 10.0 mi Calm Calm - N/A   Overcast
10:33 PM 26.6 °F - 15.8 °F 64% 30.06 in 10.0 mi Calm Calm - N/A   Overcast
10:53 PM 26.6 °F - 15.8 °F 64% 30.06 in 10.0 mi Calm Calm - N/A   Mostly Cloudy
11:13 PM 26.6 °F - 17.6 °F 69% 30.06 in 10.0 mi Calm Calm - N/A   Overcast
11:33 PM 26.6 °F - 15.8 °F 64% 30.05 in 10.0 mi Calm Calm - N/A   Overcast
11:53 PM 26.6 °F - 17.6 °F 69% 30.04 in 10.0 mi Calm Calm - N/A   Overcast